"read_dt","SO2 (ppb)","flags","PMT voltage (V)","lamp voltage (V)","lamp intensity (Hz)","internal temp (C)","react chamber temp (C)","sample flow (l/min)","pres (mmHg)","SO2 bkg (ppb)","SO2 coefficient"
2014-10-25 00:00:00,1828E-3,5C000000,-0724,0824,12307,027.7,045.4,0.480,743.5,01.18,0.508
2014-10-25 00:01:00,1828E-3,5C000000,-0724,0825,12227,027.7,045.4,0.479,743.5,01.18,0.508
2014-10-25 00:02:00,1873E-3,5C000000,-0724,0826,12087,027.7,045.4,0.480,743.6,01.18,0.508
2014-10-25 00:03:00,1819E-3,5C000000,-0724,0826,12368,027.7,045.4,0.479,743.6,01.18,0.508
2014-10-25 00:04:00,1673E-3,5C000000,-0724,0826,12282,027.7,045.4,0.480,743.6,01.18,0.508
2014-10-25 00:05:00,1809E-3,5C000000,-0724,0825,12147,027.8,045.4,0.479,743.6,01.18,0.508
2014-10-25 00:06:00,1909E-3,5C000000,-0724,0824,12154,027.8,045.4,0.480,743.6,01.18,0.508
2014-10-25 00:07:00,1734E-3,5C000000,-0724,0826,12226,027.9,045.4,0.480,743.7,01.18,0.508
2014-10-25 00:08:00,1812E-3,5C000000,-0724,0827,12208,028.0,045.4,0.479,743.6,01.18,0.508
2014-10-25 00:09:00,1766E-3,5C000000,-0724,0827,12278,028.1,045.4,0.480,743.6,01.18,0.508
2014-10-25 00:10:00,1826E-3,5C000000,-0724,0827,12306,028.2,045.4,0.479,743.7,01.18,0.508
2014-10-25 00:11:00,1812E-3,5C000000,-0724,0826,12264,028.3,045.5,0.479,743.6,01.18,0.508
2014-10-25 00:12:00,1926E-3,5C000000,-0724,0826,12274,028.3,045.5,0.479,743.6,01.18,0.508
2014-10-25 00:13:00,1798E-3,5C000000,-0724,0825,12132,028.2,045.4,0.479,743.7,01.18,0.508
2014-10-25 00:14:00,1751E-3,5C000000,-0724,0825,12284,028.2,045.4,0.479,743.7,01.18,0.508
2014-10-25 00:15:00,1839E-3,5C000000,-0724,0827,12126,028.1,045.4,0.479,743.7,01.18,0.508
2014-10-25 00:16:00,1814E-3,5C000000,-0724,0825,12197,028.0,045.4,0.479,743.8,01.18,0.508
2014-10-25 00:17:00,1801E-3,5C000000,-0724,0825,12225,028.0,045.5,0.479,743.8,01.18,0.508
2014-10-25 00:18:00,1852E-3,5C000000,-0724,0826,12197,027.9,045.4,0.479,743.8,01.18,0.508
2014-10-25 00:19:00,1762E-3,5C000000,-0724,0826,12121,027.9,045.5,0.479,743.7,01.18,0.508
2014-10-25 00:20:00,1834E-3,5C000000,-0724,0826,12089,027.9,045.5,0.479,743.8,01.18,0.508
2014-10-25 00:21:00,1754E-3,5C000000,-0724,0825,12252,027.9,045.4,0.479,743.9,01.18,0.508
2014-10-25 00:22:00,1773E-3,5C000000,-0724,0825,12091,027.8,045.5,0.480,743.9,01.18,0.508
2014-10-25 00:23:00,1716E-3,5C000000,-0724,0825,12227,027.8,045.5,0.479,743.8,01.18,0.508
2014-10-25 00:24:00,1986E-3,5C000000,-0724,0825,12374,027.8,045.4,0.479,744.0,01.18,0.508
2014-10-25 00:25:00,1750E-3,5C000000,-0724,0826,12161,027.8,045.4,0.479,743.9,01.18,0.508
2014-10-25 00:26:00,1933E-3,5C000000,-0724,0824,12236,027.9,045.4,0.479,744.0,01.18,0.508
2014-10-25 00:27:00,1829E-3,5C000000,-0724,0825,12282,027.9,045.4,0.480,743.9,01.18,0.508
2014-10-25 00:28:00,1972E-3,5C000000,-0724,0826,12191,027.9,045.5,0.479,743.9,01.18,0.508
2014-10-25 00:29:00,1720E-3,5C000000,-0724,0825,12175,027.9,045.5,0.479,744.0,01.18,0.508
2014-10-25 00:30:00,1884E-3,5C000000,-0724,0824,12208,028.0,045.5,0.480,744.0,01.18,0.508
2014-10-25 00:31:00,1762E-3,5C000000,-0724,0826,12412,028.0,045.5,0.479,744.0,01.18,0.508
2014-10-25 00:32:00,1797E-3,5C000000,-0724,0825,12185,028.0,045.5,0.479,744.0,01.18,0.508
2014-10-25 00:33:00,1916E-3,5C000000,-0724,0824,12267,028.0,045.4,0.480,744.0,01.18,0.508
2014-10-25 00:34:00,1904E-3,5C000000,-0724,0826,12262,028.0,045.4,0.479,744.0,01.18,0.508
2014-10-25 00:35:00,1711E-3,5C000000,-0724,0826,12097,027.9,045.4,0.479,744.0,01.18,0.508
2014-10-25 00:36:00,1626E-3,5C000000,-0724,0825,12171,027.9,045.4,0.480,744.0,01.18,0.508
2014-10-25 00:37:00,1648E-3,5C000000,-0724,0825,12057,027.8,045.5,0.479,744.1,01.18,0.508
2014-10-25 00:38:00,1844E-3,5C000000,-0724,0827,12374,027.8,045.5,0.479,744.0,01.18,0.508
2014-10-25 00:39:00,1696E-3,5C000000,-0724,0826,12170,027.8,045.5,0.480,744.0,01.18,0.508
2014-10-25 00:40:00,1722E-3,5C000000,-0724,0826,12208,027.8,045.4,0.480,744.0,01.18,0.508
2014-10-25 00:41:00,1777E-3,5C000000,-0724,0827,12304,027.7,045.4,0.479,744.0,01.18,0.508
2014-10-25 00:42:00,1732E-3,5C000000,-0724,0826,12115,027.8,045.4,0.480,744.0,01.18,0.508
2014-10-25 00:43:00,1671E-3,5C000000,-0724,0826,12176,027.8,045.4,0.480,744.1,01.18,0.508
2014-10-25 00:44:00,1846E-3,5C000000,-0724,0826,12205,027.8,045.4,0.479,744.1,01.18,0.508
2014-10-25 00:45:00,1832E-3,5C000000,-0724,0827,12318,027.8,045.4,0.480,744.1,01.18,0.508
2014-10-25 00:46:00,1867E-3,5C000000,-0724,0826,12230,027.8,045.5,0.480,744.1,01.18,0.508
2014-10-25 00:47:00,1756E-3,5C000000,-0724,0825,12169,027.8,045.5,0.479,744.1,01.18,0.508
2014-10-25 00:48:00,1808E-3,5C000000,-0724,0826,12198,027.8,045.4,0.480,744.1,01.18,0.508
2014-10-25 00:49:00,1906E-3,5C000000,-0724,0826,12291,027.8,045.4,0.479,744.1,01.18,0.508
2014-10-25 00:50:00,1763E-3,5C000000,-0724,0826,12345,027.8,045.4,0.480,744.2,01.18,0.508
2014-10-25 00:51:00,1848E-3,5C000000,-0724,0825,12158,027.7,045.5,0.480,744.2,01.18,0.508
2014-10-25 00:52:00,1738E-3,5C000000,-0724,0826,12147,027.7,045.5,0.479,744.2,01.18,0.508
2014-10-25 00:53:00,1805E-3,5C000000,-0724,0826,12183,027.7,045.5,0.480,744.2,01.18,0.508
2014-10-25 00:54:00,1763E-3,5C000000,-0724,0826,12243,027.7,045.4,0.480,744.2,01.18,0.508
2014-10-25 00:55:00,1782E-3,5C000000,-0724,0824,12240,027.7,045.4,0.479,744.2,01.18,0.508
2014-10-25 00:56:00,1832E-3,5C000000,-0724,0825,12292,027.8,045.4,0.480,744.1,01.18,0.508
2014-10-25 00:57:00,1703E-3,5C000000,-0724,0826,12417,027.7,045.4,0.480,744.2,01.18,0.508
2014-10-25 00:58:00,1708E-3,5C000000,-0724,0826,12228,027.7,045.4,0.480,744.2,01.18,0.508
2014-10-25 00:59:00,1851E-3,5C000000,-0724,0826,12105,027.7,045.5,0.480,744.3,01.18,0.508
2014-10-25 01:00:00,1853E-3,5C000000,-0724,0826,12219,027.7,045.4,0.479,744.2,01.18,0.508
2014-10-25 01:01:00,1778E-3,5C000000,-0724,0825,12153,027.8,045.4,0.480,744.2,01.18,0.508
2014-10-25 01:02:00,1770E-3,5C000000,-0724,0827,12254,027.8,045.4,0.480,744.2,01.18,0.508
2014-10-25 01:03:00,1840E-3,5C000000,-0724,0825,12176,027.7,045.4,0.479,744.3,01.18,0.508
2014-10-25 01:04:00,1849E-3,5C000000,-0724,0826,12434,027.7,045.4,0.480,744.2,01.18,0.508
2014-10-25 01:05:00,1856E-3,5C000000,-0724,0826,12390,027.7,045.5,0.480,744.2,01.18,0.508
2014-10-25 01:06:00,1841E-3,5C000000,-0724,0827,12095,027.7,045.4,0.479,744.3,01.18,0.508
2014-10-25 01:07:00,1713E-3,5C000000,-0724,0827,12376,027.7,045.4,0.480,744.3,01.18,0.508
2014-10-25 01:08:00,1802E-3,5C000000,-0724,0826,12040,027.7,045.4,0.480,744.3,01.18,0.508
2014-10-25 01:09:00,1807E-3,5C000000,-0724,0827,12145,027.7,045.4,0.480,744.3,01.18,0.508
2014-10-25 01:10:00,1676E-3,5C000000,-0724,0826,12195,027.6,045.4,0.480,744.3,01.18,0.508
2014-10-25 01:11:00,1821E-3,5C000000,-0724,0826,12255,027.6,045.5,0.480,744.3,01.18,0.508
2014-10-25 01:12:00,1655E-3,5C000000,-0724,0826,12251,027.7,045.4,0.480,744.3,01.18,0.508
2014-10-25 01:13:00,1818E-3,5C000000,-0724,0827,12171,027.7,045.4,0.480,744.3,01.18,0.508
2014-10-25 01:14:00,1904E-3,5C000000,-0724,0826,12229,027.7,045.4,0.479,744.2,01.18,0.508
2014-10-25 01:15:00,1868E-3,5C000000,-0724,0827,12044,027.8,045.4,0.480,744.3,01.18,0.508
2014-10-25 01:16:00,1825E-3,5C000000,-0724,0826,12008,028.0,045.4,0.480,744.3,01.18,0.508
2014-10-25 01:17:00,1718E-3,5C000000,-0724,0827,12225,028.1,045.4,0.479,744.3,01.18,0.508
2014-10-25 01:18:00,1758E-3,5C000000,-0724,0826,12246,028.2,045.4,0.480,744.3,01.18,0.508
2014-10-25 01:19:00,1709E-3,5C000000,-0724,0826,11990,028.3,045.5,0.479,744.3,01.18,0.508
2014-10-25 01:20:00,1714E-3,5C000000,-0724,0826,12148,028.4,045.5,0.479,744.3,01.18,0.508
2014-10-25 01:21:00,1806E-3,5C000000,-0724,0826,12332,028.4,045.5,0.479,744.3,01.18,0.508
2014-10-25 01:22:00,1753E-3,5C000000,-0724,0827,12282,028.4,045.5,0.479,744.3,01.18,0.508
2014-10-25 01:23:00,1694E-3,5C000000,-0724,0826,12242,028.4,045.4,0.479,744.4,01.18,0.508
2014-10-25 01:24:00,1809E-3,5C000000,-0724,0827,12157,028.4,045.5,0.479,744.3,01.18,0.508
2014-10-25 01:25:00,1732E-3,5C000000,-0724,0826,12490,028.3,045.5,0.479,744.4,01.18,0.508
2014-10-25 01:26:00,1743E-3,5C000000,-0724,0827,12079,028.2,045.4,0.479,744.3,01.18,0.508
2014-10-25 01:27:00,1613E-3,5C000000,-0724,0826,12089,028.1,045.4,0.479,744.4,01.18,0.508
2014-10-25 01:28:00,1723E-3,5C000000,-0724,0827,12296,028.1,045.4,0.479,744.4,01.18,0.508
2014-10-25 01:29:00,1789E-3,5C000000,-0724,0826,12258,028.0,045.4,0.479,744.5,01.17,0.508
2014-10-25 01:30:00,1843E-3,5C000000,-0724,0826,12268,028.0,045.4,0.480,744.5,01.17,0.508
2014-10-25 01:31:00,1805E-3,5C000000,-0724,0826,12293,028.0,045.4,0.479,744.5,01.17,0.508
2014-10-25 01:32:00,1804E-3,5C000000,-0724,0826,12165,027.9,045.5,0.479,744.5,01.17,0.508
2014-10-25 01:33:00,1717E-3,5C000000,-0724,0825,12167,027.9,045.5,0.480,744.5,01.17,0.508
2014-10-25 01:34:00,1841E-3,5C000000,-0724,0825,12295,027.9,045.5,0.480,744.5,01.17,0.508
2014-10-25 01:35:00,1801E-3,5C000000,-0724,0826,12039,027.9,045.4,0.479,744.5,01.17,0.508
2014-10-25 01:36:00,1786E-3,5C000000,-0724,0826,12110,027.9,045.4,0.479,744.5,01.17,0.508
2014-10-25 01:37:00,1813E-3,5C000000,-0724,0825,12200,027.9,045.5,0.480,744.5,01.17,0.508
2014-10-25 01:38:00,1959E-3,5C000000,-0724,0826,12153,027.9,045.4,0.479,744.5,01.17,0.508
2014-10-25 01:39:00,2168E-3,5C000000,-0724,0826,12208,027.9,045.5,0.479,744.5,01.17,0.508
2014-10-25 01:40:00,2242E-3,5C000000,-0724,0826,12309,027.9,045.5,0.480,744.5,01.17,0.508
2014-10-25 01:41:00,2279E-3,5C000000,-0724,0826,12359,027.9,045.5,0.480,744.5,01.17,0.508
2014-10-25 01:42:00,1919E-3,5C000000,-0724,0825,12254,027.8,045.5,0.479,744.5,01.17,0.508
2014-10-25 01:43:00,1898E-3,5C000000,-0724,0827,12171,027.9,045.5,0.480,744.5,01.17,0.508
2014-10-25 01:44:00,1816E-3,5C000000,-0724,0826,12141,027.9,045.4,0.480,744.5,01.17,0.508
2014-10-25 01:45:00,1831E-3,5C000000,-0724,0825,12316,027.8,045.4,0.479,744.6,01.17,0.508
2014-10-25 01:46:00,1784E-3,5C000000,-0724,0826,12146,027.8,045.4,0.480,744.5,01.17,0.508
2014-10-25 01:47:00,1728E-3,5C000000,-0724,0826,12147,027.8,045.5,0.480,744.6,01.17,0.508
2014-10-25 01:48:00,1802E-3,5C000000,-0724,0827,12276,027.7,045.5,0.480,744.6,01.17,0.508
2014-10-25 01:49:00,1825E-3,5C000000,-0724,0825,12122,027.7,045.4,0.479,744.7,01.17,0.508
2014-10-25 01:50:00,1867E-3,5C000000,-0724,0825,12124,027.7,045.4,0.480,744.6,01.17,0.508
2014-10-25 01:51:00,1815E-3,5C000000,-0724,0826,12502,027.7,045.4,0.480,744.7,01.17,0.508
2014-10-25 01:52:00,1825E-3,5C000000,-0724,0825,12246,027.7,045.4,0.479,744.7,01.17,0.508
2014-10-25 01:53:00,1907E-3,5C000000,-0724,0826,12298,027.7,045.5,0.480,744.7,01.17,0.508
2014-10-25 01:54:00,1858E-3,5C000000,-0724,0825,12218,027.7,045.4,0.480,744.7,01.17,0.508
2014-10-25 01:55:00,1761E-3,5C000000,-0724,0825,12103,027.7,045.4,0.480,744.7,01.17,0.508
2014-10-25 01:56:00,1768E-3,5C000000,-0724,0825,12189,027.7,045.4,0.480,744.7,01.17,0.508
2014-10-25 01:57:00,1757E-3,5C000000,-0724,0825,12240,027.7,045.4,0.480,744.7,01.17,0.508
2014-10-25 01:58:00,1712E-3,5C000000,-0724,0826,12140,027.7,045.5,0.480,744.7,01.17,0.508
2014-10-25 01:59:00,1700E-3,5C000000,-0724,0826,12362,027.7,045.5,0.480,744.7,01.17,0.508
2014-10-25 02:00:00,1790E-3,5C000000,-0724,0826,12033,027.7,045.4,0.480,744.8,01.17,0.508
2014-10-25 02:01:00,1869E-3,5C000000,-0724,0826,12186,027.7,045.5,0.480,744.7,01.17,0.508
2014-10-25 02:02:00,1768E-3,5C000000,-0724,0827,12226,027.7,045.5,0.480,744.8,01.17,0.508
2014-10-25 02:03:00,1849E-3,5C000000,-0724,0825,12099,027.7,045.4,0.480,744.7,01.17,0.508
2014-10-25 02:04:00,1758E-3,5C000000,-0724,0825,12257,027.7,045.4,0.480,744.8,01.17,0.508
2014-10-25 02:05:00,1793E-3,5C000000,-0724,0825,12170,027.7,045.4,0.480,744.8,01.17,0.508
2014-10-25 02:06:00,1857E-3,5C000000,-0724,0826,12407,027.7,045.5,0.480,744.8,01.17,0.508
2014-10-25 02:07:00,1814E-3,5C000000,-0724,0825,12262,027.7,045.5,0.480,744.8,01.17,0.508
2014-10-25 02:08:00,1835E-3,5C000000,-0724,0826,12224,027.7,045.5,0.480,744.8,01.17,0.508
2014-10-25 02:09:00,1878E-3,5C000000,-0724,0826,12136,027.7,045.5,0.480,744.8,01.17,0.508
2014-10-25 02:10:00,1865E-3,5C000000,-0724,0825,12079,027.7,045.5,0.480,744.8,01.17,0.508
2014-10-25 02:11:00,1923E-3,5C000000,-0724,0826,12228,027.7,045.4,0.480,744.8,01.17,0.508
2014-10-25 02:12:00,1814E-3,5C000000,-0724,0826,12227,027.6,045.4,0.480,744.8,01.17,0.508
2014-10-25 02:13:00,1938E-3,5C000000,-0724,0826,12298,027.6,045.5,0.480,744.9,01.17,0.508
2014-10-25 02:14:00,1921E-3,5C000000,-0724,0826,12063,027.6,045.4,0.480,744.9,01.17,0.508
2014-10-25 02:15:00,1810E-3,5C000000,-0724,0826,12096,027.6,045.4,0.480,744.8,01.17,0.508
2014-10-25 02:16:00,1897E-3,5C000000,-0724,0826,12223,027.6,045.4,0.480,744.8,01.17,0.508
2014-10-25 02:17:00,1928E-3,5C000000,-0724,0826,12246,027.7,045.4,0.480,744.9,01.17,0.508
2014-10-25 02:18:00,1876E-3,5C000000,-0724,0825,12068,027.7,045.4,0.480,744.8,01.17,0.508
2014-10-25 02:19:00,1968E-3,5C000000,-0724,0825,12235,027.7,045.4,0.480,744.8,01.17,0.508
2014-10-25 02:20:00,1753E-3,5C000000,-0724,0826,12316,027.7,045.4,0.480,744.9,01.17,0.508
2014-10-25 02:21:00,2033E-3,5C000000,-0724,0826,12150,027.7,045.4,0.480,744.9,01.17,0.508
2014-10-25 02:22:00,1923E-3,5C000000,-0724,0826,12156,027.7,045.4,0.480,744.9,01.17,0.508
2014-10-25 02:23:00,1911E-3,5C000000,-0724,0826,12178,027.7,045.4,0.480,744.9,01.17,0.508
2014-10-25 02:24:00,1952E-3,5C000000,-0724,0827,12305,027.6,045.4,0.480,744.9,01.17,0.508
2014-10-25 02:25:00,1931E-3,5C000000,-0724,0825,12309,027.7,045.4,0.480,744.9,01.17,0.508
2014-10-25 02:26:00,1899E-3,5C000000,-0724,0826,12115,027.7,045.5,0.480,744.9,01.17,0.508
2014-10-25 02:27:00,1802E-3,5C000000,-0724,0827,12168,027.7,045.4,0.480,744.9,01.17,0.508
2014-10-25 02:28:00,1732E-3,5C000000,-0724,0826,12452,027.6,045.4,0.480,744.9,01.17,0.508
2014-10-25 02:29:00,1922E-3,5C000000,-0724,0826,12332,027.6,045.4,0.480,744.9,01.17,0.508
2014-10-25 02:30:00,1909E-3,5C000000,-0724,0825,12348,027.6,045.4,0.480,745.0,01.17,0.508
2014-10-25 02:31:00,1825E-3,5C000000,-0724,0826,12175,027.6,045.4,0.480,744.9,01.17,0.508
2014-10-25 02:32:00,1741E-3,5C000000,-0724,0825,12390,027.6,045.4,0.480,744.9,01.17,0.508
2014-10-25 02:33:00,1912E-3,5C000000,-0724,0826,12148,027.6,045.4,0.480,745.0,01.17,0.508
2014-10-25 02:34:00,1808E-3,5C000000,-0724,0826,12171,027.6,045.5,0.480,744.9,01.17,0.508
2014-10-25 02:35:00,1857E-3,5C000000,-0724,0825,12162,027.6,045.5,0.480,745.0,01.17,0.508
2014-10-25 02:36:00,1567E-3,5C000000,-0724,0826,12159,027.6,045.4,0.480,745.0,01.17,0.508
2014-10-25 02:37:00,1791E-3,5C000000,-0724,0826,12168,027.6,045.4,0.480,745.0,01.17,0.508
2014-10-25 02:38:00,1746E-3,5C000000,-0724,0826,12512,027.6,045.4,0.480,745.0,01.17,0.508
2014-10-25 02:39:00,1865E-3,5C000000,-0724,0824,12257,027.6,045.4,0.480,745.0,01.17,0.508
2014-10-25 02:40:00,1796E-3,5C000000,-0724,0824,12285,027.6,045.5,0.480,745.0,01.17,0.508
2014-10-25 02:41:00,1820E-3,5C000000,-0724,0824,12272,027.6,045.5,0.480,745.0,01.17,0.508
2014-10-25 02:42:00,1724E-3,5C000000,-0724,0824,12387,027.6,045.4,0.480,745.0,01.17,0.508
2014-10-25 02:43:00,1832E-3,5C000000,-0724,0825,12198,027.6,045.4,0.480,745.0,01.17,0.508
2014-10-25 02:44:00,1807E-3,5C000000,-0724,0825,12325,027.6,045.4,0.480,745.0,01.17,0.508
2014-10-25 02:45:00,1763E-3,5C000000,-0724,0824,12129,027.6,045.5,0.480,745.0,01.17,0.508
2014-10-25 02:46:00,1810E-3,5C000000,-0724,0824,12144,027.6,045.4,0.480,745.0,01.17,0.508
2014-10-25 02:47:00,1705E-3,5C000000,-0724,0825,12079,027.6,045.5,0.481,745.1,01.17,0.508
2014-10-25 02:48:00,1793E-3,5C000000,-0724,0826,12353,027.6,045.4,0.480,745.1,01.17,0.508
2014-10-25 02:49:00,1838E-3,5C000000,-0724,0825,12169,027.6,045.4,0.480,745.1,01.17,0.508
2014-10-25 02:50:00,1729E-3,5C000000,-0724,0826,12311,027.6,045.4,0.481,745.1,01.17,0.508
2014-10-25 02:51:00,1803E-3,5C000000,-0724,0825,12321,027.6,045.5,0.480,745.1,01.17,0.508
2014-10-25 02:52:00,1860E-3,5C000000,-0724,0825,12214,027.6,045.4,0.480,745.1,01.17,0.508
2014-10-25 02:53:00,1849E-3,5C000000,-0724,0824,12301,027.6,045.4,0.481,745.1,01.17,0.508
2014-10-25 02:54:00,1759E-3,5C000000,-0724,0824,12195,027.5,045.5,0.480,745.1,01.17,0.508
2014-10-25 02:55:00,1738E-3,5C000000,-0724,0826,12306,027.6,045.5,0.480,745.2,01.17,0.508
2014-10-25 02:56:00,1802E-3,5C000000,-0724,0826,12301,027.5,045.4,0.480,745.2,01.17,0.508
2014-10-25 02:57:00,1875E-3,5C000000,-0724,0826,12220,027.5,045.4,0.480,745.2,01.17,0.508
2014-10-25 02:58:00,1879E-3,5C000000,-0724,0826,12094,027.6,045.4,0.480,745.2,01.17,0.508
2014-10-25 02:59:00,1753E-3,5C000000,-0724,0826,12227,027.6,045.4,0.480,745.2,01.17,0.508
2014-10-25 03:00:00,1735E-3,5C000000,-0724,0827,12332,027.5,045.4,0.480,745.2,01.17,0.508
2014-10-25 03:01:00,1786E-3,5C000000,-0724,0826,12312,027.6,045.4,0.480,745.2,01.17,0.508
2014-10-25 03:02:00,1762E-3,5C000000,-0724,0827,12207,027.6,045.4,0.480,745.2,01.17,0.508
2014-10-25 03:03:00,1876E-3,5C000000,-0724,0824,12203,027.6,045.4,0.481,745.2,01.17,0.508
2014-10-25 03:04:00,1793E-3,5C000000,-0724,0824,12263,027.6,045.4,0.480,745.2,01.17,0.508
2014-10-25 03:05:00,1773E-3,5C000000,-0724,0825,12272,027.6,045.5,0.480,745.3,01.17,0.508
2014-10-25 03:06:00,1702E-3,5C000000,-0724,0825,12083,027.6,045.4,0.481,745.3,01.17,0.508
2014-10-25 03:07:00,1756E-3,5C000000,-0724,0825,12320,027.6,045.4,0.481,745.3,01.17,0.508
2014-10-25 03:08:00,1799E-3,5C000000,-0724,0826,12168,027.6,045.5,0.480,745.3,01.17,0.508
2014-10-25 03:09:00,1735E-3,5C000000,-0724,0826,12182,027.6,045.4,0.480,745.3,01.17,0.508
2014-10-25 03:10:00,1801E-3,5C000000,-0724,0826,12263,027.6,045.5,0.481,745.3,01.17,0.508
2014-10-25 03:11:00,1851E-3,5C000000,-0724,0826,12128,027.6,045.5,0.481,745.4,01.17,0.508
2014-10-25 03:12:00,1857E-3,5C000000,-0724,0825,12265,027.6,045.4,0.480,745.4,01.17,0.508
2014-10-25 03:13:00,1733E-3,5C000000,-0724,0825,12197,027.6,045.4,0.480,745.4,01.17,0.508
2014-10-25 03:14:00,1743E-3,5C000000,-0724,0825,12178,027.6,045.5,0.481,745.4,01.17,0.508
2014-10-25 03:15:00,1843E-3,5C000000,-0724,0824,12232,027.6,045.4,0.480,745.3,01.17,0.508
2014-10-25 03:16:00,1795E-3,5C000000,-0724,0825,12123,027.6,045.4,0.480,745.3,01.17,0.508
2014-10-25 03:17:00,1728E-3,5C000000,-0724,0825,12467,027.6,045.4,0.480,745.3,01.17,0.508
2014-10-25 03:18:00,1678E-3,5C000000,-0724,0826,12055,027.6,045.4,0.481,745.3,01.17,0.508
2014-10-25 03:19:00,1809E-3,5C000000,-0724,0825,12389,027.6,045.4,0.480,745.3,01.17,0.508
2014-10-25 03:20:00,1595E-3,5C000000,-0724,0825,12359,027.6,045.4,0.480,745.3,01.17,0.508
2014-10-25 03:21:00,1637E-3,5C000000,-0724,0825,12216,027.6,045.4,0.480,745.3,01.17,0.508
2014-10-25 03:22:00,1807E-3,5C000000,-0724,0826,12240,027.6,045.4,0.481,745.3,01.17,0.508
2014-10-25 03:23:00,1739E-3,5C000000,-0724,0826,12264,027.6,045.4,0.480,745.3,01.17,0.508
2014-10-25 03:24:00,1612E-3,5C000000,-0724,0826,12321,027.6,045.4,0.480,745.4,01.17,0.508
2014-10-25 03:25:00,1731E-3,5C000000,-0724,0826,12504,027.5,045.4,0.481,745.4,01.17,0.508
2014-10-25 03:26:00,1763E-3,5C000000,-0724,0826,12180,027.5,045.4,0.480,745.4,01.17,0.508
2014-10-25 03:27:00,1882E-3,5C000000,-0724,0826,12270,027.5,045.4,0.480,745.4,01.17,0.508
2014-10-25 03:28:00,1814E-3,5C000000,-0724,0826,12342,027.5,045.4,0.481,745.4,01.17,0.508
2014-10-25 03:29:00,1769E-3,5C000000,-0724,0826,12166,027.5,045.4,0.481,745.4,01.17,0.508
2014-10-25 03:30:00,1710E-3,5C000000,-0724,0826,12223,027.5,045.4,0.480,745.4,01.17,0.508
2014-10-25 03:31:00,1778E-3,5C000000,-0724,0827,12391,027.5,045.4,0.480,745.4,01.17,0.508
2014-10-25 03:32:00,1854E-3,5C000000,-0724,0827,12191,027.6,045.4,0.481,745.4,01.17,0.508
2014-10-25 03:33:00,1886E-3,5C000000,-0724,0826,12116,027.6,045.4,0.480,745.4,01.17,0.508
2014-10-25 03:34:00,1812E-3,5C000000,-0724,0827,12173,027.6,045.4,0.480,745.4,01.17,0.508
2014-10-25 03:35:00,1906E-3,5C000000,-0724,0826,12224,027.6,045.4,0.481,745.4,01.17,0.508
2014-10-25 03:36:00,1811E-3,5C000000,-0724,0825,12248,027.6,045.4,0.480,745.5,01.17,0.508
2014-10-25 03:37:00,1759E-3,5C000000,-0724,0825,12305,027.6,045.4,0.480,745.5,01.17,0.508
2014-10-25 03:38:00,1820E-3,5C000000,-0724,0824,12269,027.6,045.4,0.481,745.5,01.17,0.508
2014-10-25 03:39:00,1853E-3,5C000000,-0724,0823,12175,027.6,045.4,0.481,745.5,01.17,0.508
2014-10-25 03:40:00,1860E-3,5C000000,-0724,0824,12347,027.6,045.4,0.480,745.5,01.17,0.508
2014-10-25 03:41:00,1744E-3,5C000000,-0724,0825,12187,027.6,045.5,0.480,745.5,01.17,0.508
2014-10-25 03:42:00,1750E-3,5C000000,-0724,0825,12266,027.6,045.5,0.481,745.5,01.17,0.508
2014-10-25 03:43:00,1768E-3,5C000000,-0724,0824,12523,027.6,045.4,0.481,745.6,01.17,0.508
2014-10-25 03:44:00,1752E-3,5C000000,-0724,0823,12305,027.6,045.4,0.480,745.6,01.17,0.508
2014-10-25 03:45:00,1834E-3,5C000000,-0724,0825,12134,027.6,045.4,0.480,745.6,01.17,0.508
2014-10-25 03:46:00,1692E-3,5C000000,-0724,0826,12119,027.6,045.4,0.481,745.6,01.17,0.508
2014-10-25 03:47:00,1815E-3,5C000000,-0724,0823,12265,027.6,045.4,0.480,745.6,01.17,0.508
2014-10-25 03:48:00,1678E-3,5C000000,-0724,0823,11985,027.5,045.4,0.480,745.6,01.17,0.508
2014-10-25 03:49:00,1738E-3,5C000000,-0724,0825,12230,027.5,045.4,0.480,745.7,01.17,0.508
2014-10-25 03:50:00,1743E-3,5C000000,-0724,0826,12201,027.5,045.4,0.481,745.7,01.17,0.508
2014-10-25 03:51:00,1867E-3,5C000000,-0724,0826,12292,027.5,045.5,0.480,745.6,01.17,0.508
2014-10-25 03:52:00,1758E-3,5C000000,-0724,0826,12141,027.5,045.4,0.480,745.7,01.17,0.508
2014-10-25 03:53:00,1588E-3,5C000000,-0724,0826,12211,027.5,045.4,0.481,745.7,01.17,0.508
2014-10-25 03:54:00,1749E-3,5C000000,-0724,0825,12205,027.5,045.4,0.481,745.7,01.17,0.508
2014-10-25 03:55:00,1919E-3,5C000000,-0724,0826,12232,027.6,045.4,0.481,745.7,01.17,0.508
2014-10-25 03:56:00,1895E-3,5C000000,-0724,0826,12225,027.6,045.4,0.480,745.7,01.17,0.508
2014-10-25 03:57:00,1816E-3,5C000000,-0724,0824,12328,027.6,045.4,0.480,745.7,01.17,0.508
2014-10-25 03:58:00,1919E-3,5C000000,-0724,0824,12356,027.6,045.4,0.481,745.7,01.17,0.508
2014-10-25 03:59:00,1792E-3,5C000000,-0724,0824,12352,027.6,045.4,0.481,745.8,01.17,0.508
2014-10-25 04:00:00,1780E-3,5C000000,-0724,0826,12250,027.6,045.4,0.480,745.8,01.17,0.508
2014-10-25 04:01:00,1815E-3,5C000000,-0724,0824,12404,027.6,045.4,0.480,745.8,01.17,0.508
2014-10-25 04:02:00,1764E-3,5C000000,-0724,0826,12135,027.6,045.5,0.481,745.8,01.17,0.508
2014-10-25 04:03:00,1906E-3,5C000000,-0724,0825,11994,027.6,045.4,0.481,745.8,01.17,0.508
2014-10-25 04:04:00,1716E-3,5C000000,-0724,0826,12139,027.6,045.4,0.480,745.8,01.17,0.508
2014-10-25 04:05:00,1728E-3,5C000000,-0724,0825,12191,027.5,045.4,0.480,745.8,01.17,0.508
2014-10-25 04:06:00,1713E-3,5C000000,-0724,0824,12431,027.6,045.4,0.481,745.8,01.17,0.508
2014-10-25 04:07:00,1869E-3,5C000000,-0724,0825,11988,027.5,045.5,0.481,745.8,01.17,0.508
2014-10-25 04:08:00,1872E-3,5C000000,-0724,0826,12095,027.5,045.5,0.480,745.8,01.17,0.508
2014-10-25 04:09:00,1749E-3,5C000000,-0724,0826,12162,027.5,045.5,0.480,745.8,01.17,0.508
2014-10-25 04:10:00,1746E-3,5C000000,-0724,0826,12219,027.5,045.4,0.481,745.9,01.17,0.508
2014-10-25 04:11:00,1762E-3,5C000000,-0724,0826,12252,027.5,045.4,0.481,745.8,01.17,0.508
2014-10-25 04:12:00,1770E-3,5C000000,-0724,0825,12216,027.5,045.4,0.480,745.8,01.17,0.508
2014-10-25 04:13:00,1825E-3,5C000000,-0724,0825,12296,027.5,045.4,0.481,745.8,01.17,0.508
2014-10-25 04:14:00,1895E-3,5C000000,-0724,0825,12306,027.5,045.5,0.481,745.9,01.17,0.508
2014-10-25 04:15:00,1712E-3,5C000000,-0724,0825,12025,027.5,045.5,0.480,745.9,01.17,0.508
2014-10-25 04:16:00,1731E-3,5C000000,-0724,0826,12128,027.6,045.4,0.480,745.9,01.17,0.508
2014-10-25 04:17:00,1744E-3,5C000000,-0724,0826,12282,027.6,045.5,0.481,745.9,01.17,0.508
2014-10-25 04:18:00,1752E-3,5C000000,-0724,0825,12332,027.5,045.5,0.481,745.9,01.17,0.508
2014-10-25 04:19:00,1897E-3,5C000000,-0724,0826,12183,027.6,045.5,0.480,745.9,01.17,0.508
2014-10-25 04:20:00,1815E-3,5C000000,-0724,0825,12120,027.6,045.4,0.480,745.9,01.17,0.508